CZ-6A DEB

Satellite information

Favourite Embed

Satellite Type and Status

DEBRISIN ORBIT

Key statistics

Satellite CZ-6A DEB at a glance.

Uptime

1088

Days in orbit

Revolutions

≈ 14.2

Per day

Orbit

SSO

Sun Synchronous Orbit

Inclination

98.8

Latest

Satellite identification and parameters

Extended collection of information and parameters for CZ-6A DEB.

Object identification

Identified? True

Debris? True

Object name: CZ-6A DEB

International designator: 2022-151YJ

Object number (NORAD): 55536

Object ID (CCSDS): 55536

Country: PEOPLES REPUBLIC OF CHINA (PRC)

Current information (Y/N): Y

RCS size: SMALL

Orbital parameters

Period: 101.147 minutes

Inclination: 98.8044 deg

SMA: 7191.102 km

Apoapsis: 844.972 km

Periapsis: 780.962 km

RAAN: 312.6445 deg

Eccentricy: 0.0044507

Argument of periapsis: 248.2358 deg

Mean anomaly: 111.4081 deg

Mean motion: 14.23670838 rev/day

Mean motion (dot): 0.00005103 rev/day2

B* drag term: 0.0022324 1/REarth

Two-line elements (TLE)

Creation date: Nov. 2, 2025, 4:06 p.m.

Reference frame: TEME

Reference center: EARTH

Epoch: Nov. 2, 2025, 11:43 a.m. UTC

TLE line 0: 0 CZ-6A DEB

TLE line 1: 1 55536U 22151YJ 25306.48851376 .00005103 00000-0 22324-2 0 9997

TLE line 2: 2 55536 98.8044 312.6445 0044507 248.2358 111.4081 14.23670838148153

Live tracking on map

Real-time ground track for satellite CZ-6A DEB.

In-orbit conjunctions

A list of the most updated potential collisions computed for object CZ-6A DEB.

Target Orbit TCA Probability of collision Miss distance Type
SL-16 DEB LEO 2025-03-09 17:18:25 0.0002227403 96.0 (m) DEBRIS
CZ-4 DEB SSO 2025-03-03 00:33:43 0.0001070696 196.0 (m) DEBRIS
SL-3 DEB LEO 2024-11-18 09:42:55 0.0001043504 79.0 (m) DEBRIS
RADCAL LEO 2024-10-03 02:03:45 0.0001421721 805.0 (m) PAYLOAD
SL-3 R/B LEO 2024-06-15 17:31:44 0.0001406115 179.0 (m) ROCKET BODY

Associated space launch

Chinese satellite reported for atmospheric/ocean/environmental/spatial parameter research purposes, details TBD.

CZ-6A DEB was lifted into orbit during the mission ‘Long March 6A | Yunhai 3’, on board a Long March 6A space rocket.

The launch took place on Nov. 11, 2022, 10:52 p.m. from Launch Complex 9A.

For more information about the launch, click the button.

Launch to space Long March 6A | Yunhai 3
Long March 6A | Yunhai 3

Agency: N/A

Status: Launch Successful

Launch date: Nov. 11, 2022, 10:52 p.m. UTC

Rocket: Long March 6A

Launch pad: Launch Complex 9A

Location: Taiyuan Satellite Launch Center, People's Republic of China

...

Latest news about this satellite

There are no fresh news available about this satellite. Check back as we update our databases every day.


Newsletter sign-up

Weekly statistics, charts and insights to help you stay on top of the space industry.